Location: Shenandoah County Park
(38.9356°N, 78.4524°W)
Time: 05:18:34
(UTC-04:00)

Explorer 11/Cluster Stage 4 - Pass Details

Date: 27 February 2024
Orbit: 465 x 1220 km, 28.8° (Epoch: 12 April)

Event Time Altitude Azimuth Distance (km) Brightness Sun altitude
Rises 22:35:54 0° 214° (SW) 3,939 - -50.5°
Reaches altitude 10° 22:39:27 10° 198° (SSW) 3,068 - -51.0°
Maximum altitude 22:44:47 20° 155° (SSE) 2,461 - -51.7°
Drops below altitude 10° 22:50:16 10° 112° (ESE) 3,162 - -52.4°
Sets 22:53:59 0° 97° (E) 4,097 - -52.9°
